Find Local Weather

World > North America > United States > Michigan

Union Lake, Michigan Regional Weather

Lat: 42.61N, Lon: 83.45W
Wx Zone: MIZ069
Feedback
Expires:201810170300;;299291
ASUS43 KDTX 170210
RWRMI 
MICHIGAN HOURLY REGIONAL WEATHER ROUNDUP
NATIONAL WEATHER SERVICE DETROIT/PONTIAC MI
ISSUED BY NATIONAL WEATHER SERVICE GRAND RAPIDS MI
1000 PM EDT TUE OCT 16 2018

NOTE: "FAIR" INDICATES FEW OR NO CLOUDS BELOW 12,000 FEET WITH NO
SIGNIFICANT WEATHER AND/OR OBSTRUCTION TO VISIBILITY.


MIZ047>049-052>055-059>063-066>070-074>076-081>083-170300-
SOUTHEAST LOWER MICHIGAN
  
CITY           SKY/WX    TMP DP  RH WIND       PRES   REMARKS
ADRIAN         FAIR      44  30  57 SW3       30.03R                  
ALMA           FAIR      46  37  73 SW7       29.94S                  
ANN ARBOR      FAIR      42  30  62 S7        29.99S                  
BAD AXE        MOCLDY    46  34  63 SW8       29.90S                  
DETROIT CITY   FAIR      49  29  46 SW10      29.99S                  
DETROIT        FAIR      48  29  47 SW12      30.00S                  
FLINT          FAIR      46  29  51 SW7       29.96S                  
GROSSE ILE     FAIR      48  31  50 SW8       30.00S                  
HILLSDALE      FAIR      45  30  57 SW8       30.01S                  
HOWELL         FAIR      47  32  54 SW8       29.96F                  

CITY           SKY/WX    TMP DP  RH WIND       PRES   REMARKS
JACKSON        FAIR      46  31  55 SW13      29.99S                  
LANSING        FAIR      47  31  53 SW12      29.96F                  
MASON          FAIR      49  29  46 SW7       29.97S                  
MONROE         FAIR      47  29  50 SW9       30.01S                  
MT. CLEMENS    PTCLDY    49  29  46 SW12      29.96S                  
PONTIAC        FAIR      48  30  49 SW9G18    29.96S                  
PORT HOPE        N/A     49  36  61 VRB6G16   29.87F                  
PORT HURON     FAIR      46  28  49 SW5       29.96S                  
TRI CITIES     FAIR      48  37  65 SW12      29.93S                  
YPSILANTI      FAIR      47  32  56 SW10      30.00S                  
$$

SKY/WX - Weather  TMP - Temperature  DP - Dew Point  RH - Relative Humidity
WIND - Wind Direction/Speed PRES - Barometric Pressure
Opt in/Opt out of Taboola Video Ads